Location: Buckenweiler
(49.0667°N, 10.2500°E)
Time: 17:28:15
(UTC+00:00)

Cosmos 841 Rocket - Pass Details

Date: 18 January 2026
Orbit: 743 x 766 km, 74.0° (Epoch: 16 February)

Event Time Altitude Azimuth Distance (km) Brightness Sun altitude
Exits shadow 06:14:05 - 336° (NNW) 3,191 6.3 -8.4°
Reaches altitude 10° 06:16:25 10° 337° (NNW) 2,282 5.5 -8.0°
Maximum altitude 06:21:36 86° 66° (ENE) 756 3.5 -7.3°
Drops below altitude 10° 06:26:43 10° 157° (SSE) 2,254 6.7 -6.5°
Sets 06:29:03 0° 158° (SSE) 3,172 7.5 -6.1°
